Time,TemperatureF,DewpointF,PressureIn,WindDirection,WindDirectionDegrees,WindSpeedMPH,WindSpeedGustMPH,Humidity,HourlyPrecipIn,Conditions,Clouds,dailyrainin,SoftwareType,DateUTC
2013-05-15 00:05:00,53.5,44.3,29.90,N/A,-737280,0.0,0.0,71,0.00,,,0.00,Wunderground v.1.13,2013-05-15 04:05:00,
2013-05-15 00:10:00,53.3,44.1,29.90,SSE,152,0.0,0.0,71,0.00,,,0.00,Wunderground v.1.13,2013-05-15 04:10:00,
2013-05-15 00:20:00,52.9,43.7,29.90,SSE,152,0.0,0.0,71,0.00,,,0.00,Wunderground v.1.13,2013-05-15 04:20:00,
2013-05-15 00:30:00,52.5,43.7,29.89,SSE,153,0.0,0.0,72,0.00,,,0.00,Wunderground v.1.13,2013-05-15 04:30:00,
2013-05-15 00:35:00,52.3,43.5,29.89,SSE,152,0.0,0.0,72,0.00,,,0.00,Wunderground v.1.13,2013-05-15 04:35:00,
2013-05-15 00:45:00,52.1,43.7,29.89,SSE,153,0.0,0.0,73,0.00,,,0.00,Wunderground v.1.13,2013-05-15 04:45:00,
2013-05-15 00:55:00,51.7,43.7,29.88,SSE,153,0.0,0.0,74,0.00,,,0.00,Wunderground v.1.13,2013-05-15 04:55:00,
2013-05-15 01:00:00,51.5,43.5,29.88,SSE,153,0.0,0.0,74,0.00,,,0.00,Wunderground v.1.13,2013-05-15 05:00:00,
2013-05-15 01:05:00,51.3,43.6,29.88,N/A,-737280,0.0,0.0,75,0.00,,,0.00,Wunderground v.1.13,2013-05-15 05:05:00,
2013-05-15 01:15:00,51.0,43.4,29.88,SSE,152,0.0,0.0,75,0.00,,,0.00,Wunderground v.1.13,2013-05-15 05:15:00,
2013-05-15 01:25:00,50.8,43.5,29.88,SSE,152,0.0,0.0,76,0.00,,,0.00,Wunderground v.1.13,2013-05-15 05:25:00,
2013-05-15 01:30:00,50.7,43.8,29.88,SSE,153,0.0,0.0,77,0.00,,,0.00,Wunderground v.1.13,2013-05-15 05:30:00,
2013-05-15 01:40:00,50.4,43.5,29.88,SSE,153,0.0,0.0,77,0.00,,,0.00,Wunderground v.1.13,2013-05-15 05:40:00,
2013-05-15 01:50:00,50.1,43.8,29.87,SSE,152,0.0,0.0,79,0.00,,,0.00,Wunderground v.1.13,2013-05-15 05:50:00,
2013-05-15 01:55:00,49.8,43.9,29.87,SSE,152,0.0,0.0,80,0.00,,,0.00,Wunderground v.1.13,2013-05-15 05:55:00,
2013-05-15 02:00:00,49.7,43.8,29.87,SSE,153,0.0,0.0,80,0.00,,,0.00,Wunderground v.1.13,2013-05-15 06:00:00,
2013-05-15 02:05:00,49.5,43.6,29.87,N/A,-737280,0.0,0.0,80,0.00,,,0.00,Wunderground v.1.13,2013-05-15 06:05:00,
2013-05-15 02:15:00,49.4,43.8,29.87,SSE,153,0.0,0.0,81,0.00,,,0.00,Wunderground v.1.13,2013-05-15 06:15:00,
2013-05-15 02:25:00,49.2,43.6,29.87,SSE,153,0.0,0.0,81,0.00,,,0.00,Wunderground v.1.13,2013-05-15 06:25:00,
2013-05-15 02:30:00,49.2,43.6,29.87,SSE,152,0.0,0.0,81,0.00,,,0.00,Wunderground v.1.13,2013-05-15 06:30:00,
2013-05-15 02:35:00,49.2,43.9,29.86,SSE,153,0.0,0.0,82,0.00,,,0.00,Wunderground v.1.13,2013-05-15 06:35:00,
2013-05-15 02:45:00,49.2,43.9,29.86,SSE,152,0.0,0.0,82,0.00,,,0.00,Wunderground v.1.13,2013-05-15 06:45:00,
2013-05-15 02:50:00,49.2,43.9,29.86,SSE,153,0.0,0.0,82,0.00,,,0.00,Wunderground v.1.13,2013-05-15 06:50:00,
2013-05-15 03:00:00,49.1,43.8,29.85,SSE,153,0.0,0.0,82,0.00,,,0.00,Wunderground v.1.13,2013-05-15 07:00:00,
2013-05-15 03:05:00,49.0,43.7,29.85,N/A,-737280,0.0,0.0,82,0.00,,,0.00,Wunderground v.1.13,2013-05-15 07:05:00,
2013-05-15 03:15:00,48.9,43.6,29.85,SSE,153,0.0,0.0,82,0.00,,,0.00,Wunderground v.1.13,2013-05-15 07:15:00,
2013-05-15 03:20:00,48.9,43.6,29.86,SSE,152,0.0,0.0,82,0.00,,,0.00,Wunderground v.1.13,2013-05-15 07:20:00,
2013-05-15 03:30:00,48.7,43.5,29.86,SSE,152,0.0,0.0,82,0.00,,,0.00,Wunderground v.1.13,2013-05-15 07:30:00,
2013-05-15 03:35:00,48.7,43.5,29.85,SSE,153,0.0,0.0,82,0.00,,,0.00,Wunderground v.1.13,2013-05-15 07:35:00,
2013-05-15 03:40:00,48.7,43.5,29.85,SSE,153,0.0,0.0,82,0.00,,,0.00,Wunderground v.1.13,2013-05-15 07:40:00,
2013-05-15 03:50:00,48.8,43.5,29.85,SSE,153,0.0,0.0,82,0.00,,,0.00,Wunderground v.1.13,2013-05-15 07:50:00,
2013-05-15 04:00:00,48.9,44.0,29.85,SSE,152,0.0,0.0,83,0.00,,,0.00,Wunderground v.1.13,2013-05-15 08:00:00,
2013-05-15 04:05:00,49.1,44.2,29.85,N/A,-737280,0.0,0.0,83,0.00,,,0.00,Wunderground v.1.13,2013-05-15 08:05:00,
2013-05-15 04:15:00,49.2,44.3,29.85,SSE,153,0.0,0.0,83,0.00,,,0.00,Wunderground v.1.13,2013-05-15 08:15:00,
2013-05-15 04:25:00,49.3,44.4,29.85,SSE,153,0.0,0.0,83,0.00,,,0.00,Wunderground v.1.13,2013-05-15 08:25:00,
2013-05-15 04:30:00,49.4,44.5,29.85,SSE,153,0.0,0.0,83,0.00,,,0.00,Wunderground v.1.13,2013-05-15 08:30:00,
2013-05-15 04:35:00,49.4,44.8,29.85,SSE,152,0.0,0.0,84,0.00,,,0.00,Wunderground v.1.13,2013-05-15 08:35:00,
2013-05-15 04:40:00,49.5,44.9,29.85,SSE,153,0.0,0.0,84,0.00,,,0.00,Wunderground v.1.13,2013-05-15 08:40:00,
2013-05-15 04:45:00,49.7,45.1,29.85,SSE,153,0.0,0.0,84,0.00,,,0.00,Wunderground v.1.13,2013-05-15 08:45:00,
2013-05-15 04:55:00,49.7,45.1,29.85,SSE,153,0.0,0.0,84,0.00,,,0.00,Wunderground v.1.13,2013-05-15 08:55:00,
2013-05-15 05:00:00,49.7,45.1,29.85,SSE,153,0.0,0.0,84,0.00,,,0.00,Wunderground v.1.13,2013-05-15 09:00:00,
2013-05-15 05:05:00,49.8,45.5,29.85,N/A,-737280,0.0,0.0,85,0.00,,,0.00,Wunderground v.1.13,2013-05-15 09:05:00,
2013-05-15 05:15:00,50.0,45.7,29.85,SSE,153,0.0,0.0,85,0.00,,,0.00,Wunderground v.1.13,2013-05-15 09:15:00,
2013-05-15 05:20:00,50.1,46.1,29.85,SSE,153,0.0,0.0,86,0.00,,,0.00,Wunderground v.1.13,2013-05-15 09:20:00,
2013-05-15 05:30:00,50.3,46.3,29.84,SSE,153,0.0,0.0,86,0.00,,,0.00,Wunderground v.1.13,2013-05-15 09:30:00,
2013-05-15 05:35:00,50.3,46.6,29.84,SSE,153,0.0,0.0,87,0.00,,,0.00,Wunderground v.1.13,2013-05-15 09:35:00,
2013-05-15 05:40:00,50.4,46.7,29.84,SSE,152,0.0,0.0,87,0.00,,,0.00,Wunderground v.1.13,2013-05-15 09:40:00,
2013-05-15 05:50:00,50.4,46.7,29.84,SSE,152,0.0,0.0,87,0.00,,,0.00,Wunderground v.1.13,2013-05-15 09:50:00,
2013-05-15 06:00:00,50.5,47.1,29.84,SSE,152,0.0,1.0,88,0.00,,,0.00,Wunderground v.1.13,2013-05-15 10:00:00,
2013-05-15 06:05:00,50.6,47.5,29.84,SSE,153,0.0,0.0,89,0.00,,,0.00,Wunderground v.1.13,2013-05-15 10:05:00,
2013-05-15 06:15:00,50.6,47.5,29.83,SSE,153,0.0,0.0,89,0.00,,,0.00,Wunderground v.1.13,2013-05-15 10:15:00,
2013-05-15 06:20:00,50.7,47.6,29.84,SSE,152,0.0,0.0,89,0.00,,,0.00,Wunderground v.1.13,2013-05-15 10:20:00,
2013-05-15 06:25:00,50.7,47.6,29.84,SSE,152,0.0,0.0,89,0.00,,,0.00,Wunderground v.1.13,2013-05-15 10:25:00,
2013-05-15 06:35:00,50.8,47.7,29.84,SSE,152,0.0,0.0,89,0.00,,,0.00,Wunderground v.1.13,2013-05-15 10:35:00,
2013-05-15 06:45:00,50.9,48.1,29.83,SSE,153,0.0,1.0,90,0.00,,,0.00,Wunderground v.1.13,2013-05-15 10:45:00,
2013-05-15 06:55:00,51.2,48.4,29.84,SSE,153,0.0,0.0,90,0.00,,,0.00,Wunderground v.1.13,2013-05-15 10:55:00,
2013-05-15 07:00:00,51.2,48.4,29.84,SSE,153,0.0,0.0,90,0.00,,,0.00,Wunderground v.1.13,2013-05-15 11:00:00,
2013-05-15 07:10:00,51.8,49.0,29.84,SE,142,0.0,0.0,90,0.00,,,0.00,Wunderground v.1.13,2013-05-15 11:10:00,
2013-05-15 07:20:00,52.6,49.8,29.84,SE,142,0.0,0.0,90,0.00,,,0.00,Wunderground v.1.13,2013-05-15 11:20:00,
2013-05-15 07:25:00,53.0,50.1,29.84,SE,141,0.0,1.0,90,0.00,,,0.00,Wunderground v.1.13,2013-05-15 11:25:00,
2013-05-15 07:35:00,53.8,50.9,29.84,SE,141,0.0,0.0,90,0.00,,,0.00,Wunderground v.1.13,2013-05-15 11:35:00,
2013-05-15 07:45:00,54.4,51.5,29.84,East,92,1.0,1.0,90,0.00,,,0.00,Wunderground v.1.13,2013-05-15 11:45:00,
2013-05-15 07:55:00,55.3,52.1,29.85,East,92,0.0,0.0,89,0.00,,,0.00,Wunderground v.1.13,2013-05-15 11:55:00,
2013-05-15 08:00:00,55.5,52.3,29.85,East,92,0.0,0.0,89,0.00,,,0.00,Wunderground v.1.13,2013-05-15 12:00:00,
2013-05-15 08:05:00,55.7,52.5,29.84,N/A,-737280,0.0,0.0,89,0.00,,,0.00,Wunderground v.1.13,2013-05-15 12:05:00,
2013-05-15 08:15:00,56.6,53.4,29.85,East,92,0.0,0.0,89,0.00,,,0.00,Wunderground v.1.13,2013-05-15 12:15:00,
2013-05-15 08:25:00,58.0,54.2,29.84,East,92,0.0,0.0,87,0.00,,,0.00,Wunderground v.1.13,2013-05-15 12:25:00,
2013-05-15 08:30:00,59.0,54.5,29.83,East,92,0.0,0.0,85,0.00,,,0.00,Wunderground v.1.13,2013-05-15 12:30:00,
2013-05-15 08:35:00,59.5,54.7,29.82,SSE,161,0.0,0.0,84,0.00,,,0.00,Wunderground v.1.13,2013-05-15 12:35:00,
2013-05-15 08:45:00,60.8,54.6,29.82,East,99,1.0,1.0,80,0.00,,,0.00,Wunderground v.1.13,2013-05-15 12:45:00,
2013-05-15 09:00:00,61.8,55.2,29.79,ESE,122,1.0,5.0,79,0.00,,,0.00,Wunderground v.1.13,2013-05-15 13:00:00,
2013-05-15 09:05:00,62.3,55.4,29.77,North,10,2.0,2.0,78,0.00,,,0.00,Wunderground v.1.13,2013-05-15 13:05:00,
2013-05-15 09:15:00,63.8,56.1,29.80,South,172,3.0,3.0,76,0.00,,,0.00,Wunderground v.1.13,2013-05-15 13:15:00,
2013-05-15 09:25:00,65.6,57.1,29.82,SW,233,3.0,5.0,74,0.00,,,0.00,Wunderground v.1.13,2013-05-15 13:25:00,
2013-05-15 09:35:00,67.4,57.7,29.81,WSW,246,5.0,5.0,71,0.00,,,0.00,Wunderground v.1.13,2013-05-15 13:35:00,
2013-05-15 09:40:00,67.6,57.9,29.81,South,191,4.0,4.0,71,0.00,,,0.00,Wunderground v.1.13,2013-05-15 13:40:00,
2013-05-15 09:50:00,68.0,58.2,29.80,West,269,3.0,7.0,71,0.00,,,0.00,Wunderground v.1.13,2013-05-15 13:50:00,
2013-05-15 10:00:00,68.6,58.8,29.79,South,173,5.0,5.0,71,0.00,,,0.00,Wunderground v.1.13,2013-05-15 14:00:00,
2013-05-15 10:05:00,69.1,58.9,29.78,SE,135,3.0,8.0,70,0.00,,,0.00,Wunderground v.1.13,2013-05-15 14:05:00,
2013-05-15 10:15:00,69.8,59.2,29.79,WSW,248,5.0,5.0,69,0.00,,,0.00,Wunderground v.1.13,2013-05-15 14:15:00,
2013-05-15 10:25:00,70.3,60.1,29.77,SW,234,3.0,3.0,70,0.00,,,0.00,Wunderground v.1.13,2013-05-15 14:25:00,
2013-05-15 10:35:00,70.9,60.2,29.79,WNW,287,4.0,4.0,69,0.00,,,0.00,Wunderground v.1.13,2013-05-15 14:35:00,
2013-05-15 10:40:00,71.0,60.3,29.80,SW,226,4.0,6.0,69,0.00,,,0.00,Wunderground v.1.13,2013-05-15 14:40:00,
2013-05-15 10:45:00,71.1,60.4,29.79,South,179,3.0,3.0,69,0.00,,,0.00,Wunderground v.1.13,2013-05-15 14:45:00,
2013-05-15 10:50:00,71.0,60.3,29.79,SW,221,2.0,2.0,69,0.00,,,0.00,Wunderground v.1.13,2013-05-15 14:50:00,
2013-05-15 10:55:00,71.0,60.3,29.79,SW,223,2.0,2.0,69,0.00,,,0.00,Wunderground v.1.13,2013-05-15 14:55:00,
2013-05-15 11:06:00,71.3,61.0,29.80,WSW,246,1.0,2.0,70,0.00,,,0.00,Wunderground v.1.13,2013-05-15 15:06:00,
2013-05-15 11:15:00,71.9,60.8,29.80,ENE,62,3.0,3.0,68,0.00,,,0.00,Wunderground v.1.13,2013-05-15 15:15:00,
2013-05-15 11:30:00,72.2,61.0,29.81,SW,221,2.0,3.0,68,0.00,,,0.00,Wunderground v.1.13,2013-05-15 15:30:00,
2013-05-15 11:35:00,72.4,61.2,29.82,NW,323,2.0,4.0,68,0.00,,,0.00,Wunderground v.1.13,2013-05-15 15:35:00,
2013-05-15 11:45:00,73.3,61.7,29.82,South,188,2.0,3.0,67,0.00,,,0.00,Wunderground v.1.13,2013-05-15 15:45:00,
2013-05-15 11:55:00,74.5,62.4,29.81,WSW,248,2.0,2.0,66,0.00,,,0.00,Wunderground v.1.13,2013-05-15 15:55:00,
2013-05-15 12:00:00,74.9,61.5,29.80,WSW,245,4.0,4.0,63,0.00,,,0.00,Wunderground v.1.13,2013-05-15 16:00:00,
2013-05-15 12:06:00,75.2,61.7,29.80,SSE,155,5.0,5.0,63,0.00,,,0.00,Wunderground v.1.13,2013-05-15 16:06:00,
2013-05-15 12:15:00,75.8,61.8,29.79,SSW,195,4.0,7.0,62,0.00,,,0.00,Wunderground v.1.13,2013-05-15 16:15:00,
2013-05-15 12:30:00,76.2,62.7,29.77,SSE,163,5.0,5.0,63,0.00,,,0.00,Wunderground v.1.13,2013-05-15 16:30:00,
2013-05-15 12:45:00,77.8,63.3,29.80,WSW,250,6.0,11.0,61,0.00,,,0.00,Wunderground v.1.13,2013-05-15 16:45:00,
2013-05-15 12:55:00,78.7,64.1,29.77,SW,217,4.0,10.0,61,0.00,,,0.00,Wunderground v.1.13,2013-05-15 16:55:00,
2013-05-15 13:05:00,79.5,63.4,29.76,West,273,6.0,6.0,58,0.00,,,0.00,Wunderground v.1.13,2013-05-15 17:05:00,
2013-05-15 13:15:00,78.3,64.2,29.75,SE,142,5.0,6.0,62,0.00,,,0.00,Wunderground v.1.13,2013-05-15 17:15:00,
2013-05-15 13:20:00,78.2,64.1,29.75,WSW,237,5.0,5.0,62,0.00,,,0.00,Wunderground v.1.13,2013-05-15 17:20:00,
2013-05-15 13:25:00,78.8,64.2,29.75,WNW,295,4.0,5.0,61,0.00,,,0.00,Wunderground v.1.13,2013-05-15 17:25:00,
2013-05-15 13:35:00,80.0,64.4,29.75,SE,134,5.0,5.0,59,0.00,,,0.00,Wunderground v.1.13,2013-05-15 17:35:00,
2013-05-15 13:40:00,80.4,64.3,29.75,SSW,198,4.0,4.0,58,0.00,,,0.00,Wunderground v.1.13,2013-05-15 17:40:00,
2013-05-15 13:50:00,80.5,64.9,29.75,South,186,4.0,4.0,59,0.00,,,0.00,Wunderground v.1.13,2013-05-15 17:50:00,
2013-05-15 14:05:00,80.9,64.2,29.74,South,180,4.0,8.0,57,0.00,,,0.00,Wunderground v.1.13,2013-05-15 18:05:00,
2013-05-15 14:20:00,83.3,64.9,29.72,WSW,250,6.0,6.0,54,0.00,,,0.00,Wunderground v.1.13,2013-05-15 18:20:00,
2013-05-15 14:30:00,84.0,66.1,29.72,SW,232,6.0,6.0,55,0.00,,,0.00,Wunderground v.1.13,2013-05-15 18:30:00,
2013-05-15 14:35:00,84.2,65.8,29.72,SE,143,5.0,5.0,54,0.00,,,0.00,Wunderground v.1.13,2013-05-15 18:35:00,
2013-05-15 14:40:00,84.2,65.2,29.72,SSE,160,5.0,5.0,53,0.00,,,0.00,Wunderground v.1.13,2013-05-15 18:40:00,
2013-05-15 14:50:00,84.3,65.3,29.71,West,273,5.0,5.0,53,0.00,,,0.00,Wunderground v.1.13,2013-05-15 18:50:00,
2013-05-15 14:55:00,84.1,65.1,29.70,WSW,248,6.0,6.0,53,0.00,,,0.00,Wunderground v.1.13,2013-05-15 18:55:00,
2013-05-15 15:05:00,84.0,65.0,29.70,West,270,6.0,16.0,53,0.00,,,0.00,Wunderground v.1.13,2013-05-15 19:05:00,
2013-05-15 15:15:00,84.7,65.7,29.70,SSW,200,5.0,5.0,53,0.00,,,0.00,Wunderground v.1.13,2013-05-15 19:15:00,
2013-05-15 15:25:00,84.9,65.9,29.70,South,178,6.0,6.0,53,0.00,,,0.00,Wunderground v.1.13,2013-05-15 19:25:00,
2013-05-15 15:40:00,84.8,65.8,29.70,West,281,4.0,4.0,53,0.00,,,0.00,Wunderground v.1.13,2013-05-15 19:40:00,
2013-05-15 15:45:00,85.2,66.1,29.70,WSW,252,3.0,10.0,53,0.00,,,0.00,Wunderground v.1.13,2013-05-15 19:45:00,
2013-05-15 15:55:00,86.2,67.1,29.70,West,281,4.0,5.0,53,0.00,,,0.00,Wunderground v.1.13,2013-05-15 19:55:00,
2013-05-15 16:05:00,86.8,66.5,29.69,South,178,4.0,4.0,51,0.00,,,0.00,Wunderground v.1.13,2013-05-15 20:05:00,
2013-05-15 16:20:00,85.7,65.5,29.69,WSW,246,5.0,5.0,51,0.00,,,0.00,Wunderground v.1.13,2013-05-15 20:20:00,
2013-05-15 16:25:00,85.8,64.4,29.69,SW,222,5.0,5.0,49,0.00,,,0.00,Wunderground v.1.13,2013-05-15 20:25:00,
2013-05-15 16:30:00,86.1,64.7,29.69,SSE,167,6.0,6.0,49,0.00,,,0.00,Wunderground v.1.13,2013-05-15 20:30:00,
2013-05-15 16:35:00,86.6,65.2,29.69,SW,232,5.0,5.0,49,0.00,,,0.00,Wunderground v.1.13,2013-05-15 20:35:00,
2013-05-15 16:45:00,87.1,65.0,29.70,NW,309,5.0,8.0,48,0.00,,,0.00,Wunderground v.1.13,2013-05-15 20:45:00,
2013-05-15 16:55:00,86.6,65.2,29.69,SW,234,6.0,7.0,49,0.00,,,0.00,Wunderground v.1.13,2013-05-15 20:55:00,
2013-05-15 17:05:00,86.5,65.1,29.69,West,270,7.0,18.0,49,0.00,,,0.00,Wunderground v.1.13,2013-05-15 21:05:00,
2013-05-15 17:15:00,85.8,65.0,29.70,SSE,159,6.0,6.0,50,0.00,,,0.00,Wunderground v.1.13,2013-05-15 21:15:00,
2013-05-15 17:30:00,86.7,65.3,29.70,WSW,250,6.0,9.0,49,0.00,,,0.00,Wunderground v.1.13,2013-05-15 21:30:00,
2013-05-15 17:40:00,86.3,65.5,29.69,SSE,160,6.0,6.0,50,0.00,,,0.00,Wunderground v.1.13,2013-05-15 21:40:00,
2013-05-15 17:50:00,86.5,65.1,29.70,West,269,5.0,5.0,49,0.00,,,0.00,Wunderground v.1.13,2013-05-15 21:50:00,
2013-05-15 18:00:00,86.2,64.8,29.70,West,277,8.0,8.0,49,0.00,,,0.00,Wunderground v.1.13,2013-05-15 22:00:00,
2013-05-15 18:05:00,86.3,64.9,29.70,West,277,7.0,7.0,49,0.00,,,0.00,Wunderground v.1.13,2013-05-15 22:05:00,
2013-05-15 18:15:00,86.2,64.8,29.69,West,269,4.0,8.0,49,0.00,,,0.00,Wunderground v.1.13,2013-05-15 22:15:00,
2013-05-15 18:20:00,86.1,64.1,29.70,WSW,238,5.0,6.0,48,0.00,,,0.00,Wunderground v.1.13,2013-05-15 22:20:00,
2013-05-15 18:35:00,85.8,64.4,29.70,SW,215,5.0,8.0,49,0.00,,,0.00,Wunderground v.1.13,2013-05-15 22:35:00,
2013-05-15 18:45:00,85.6,64.2,29.70,WSW,244,5.0,9.0,49,0.00,,,0.00,Wunderground v.1.13,2013-05-15 22:45:00,
2013-05-15 18:50:00,85.6,64.8,29.70,West,261,6.0,7.0,50,0.00,,,0.00,Wunderground v.1.13,2013-05-15 22:50:00,
2013-05-15 18:55:00,85.5,64.7,29.70,SSE,165,5.0,5.0,50,0.00,,,0.00,Wunderground v.1.13,2013-05-15 22:55:00,
2013-05-15 19:00:00,85.4,64.6,29.69,SW,217,4.0,4.0,50,0.00,,,0.00,Wunderground v.1.13,2013-05-15 23:00:00,
2013-05-15 19:05:00,85.1,64.9,29.69,West,267,4.0,4.0,51,0.00,,,0.00,Wunderground v.1.13,2013-05-15 23:05:00,
2013-05-15 19:15:00,84.5,64.4,29.70,WSW,241,3.0,3.0,51,0.00,,,0.00,Wunderground v.1.13,2013-05-15 23:15:00,
2013-05-15 19:20:00,84.2,64.7,29.70,SSE,147,2.0,3.0,52,0.00,,,0.00,Wunderground v.1.13,2013-05-15 23:20:00,
2013-05-15 19:25:00,83.8,64.3,29.70,WNW,283,2.0,2.0,52,0.00,,,0.00,Wunderground v.1.13,2013-05-15 23:25:00,
2013-05-15 19:30:00,83.6,64.7,29.70,West,263,3.0,3.0,53,0.00,,,0.00,Wunderground v.1.13,2013-05-15 23:30:00,
2013-05-15 19:35:00,83.4,65.0,29.70,WSW,256,2.0,2.0,54,0.00,,,0.00,Wunderground v.1.13,2013-05-15 23:35:00,
2013-05-15 19:40:00,83.0,64.6,29.70,SSW,202,1.0,1.0,54,0.00,,,0.00,Wunderground v.1.13,2013-05-15 23:40:00,
2013-05-15 19:50:00,82.5,64.2,29.70,WSW,247,2.0,2.0,54,0.00,,,0.00,Wunderground v.1.13,2013-05-15 23:50:00,
2013-05-15 19:55:00,82.3,64.5,29.70,WSW,247,1.0,1.0,55,0.00,,,0.00,Wunderground v.1.13,2013-05-15 23:55:00,
2013-05-15 20:00:00,82.1,64.3,29.70,WNW,288,1.0,1.0,55,0.00,,,0.00,Wunderground v.1.13,2013-05-16 00:00:00,
2013-05-15 20:05:00,81.8,64.6,29.71,West,270,0.0,3.0,56,0.00,,,0.00,Wunderground v.1.13,2013-05-16 00:05:00,
2013-05-15 20:15:00,81.4,64.7,29.71,West,261,0.0,0.0,57,0.00,,,0.00,Wunderground v.1.13,2013-05-16 00:15:00,
2013-05-15 20:20:00,81.0,64.3,29.71,West,261,0.0,1.0,57,0.00,,,0.00,Wunderground v.1.13,2013-05-16 00:20:00,
2013-05-15 20:30:00,79.6,64.5,29.71,West,260,1.0,1.0,60,0.00,,,0.00,Wunderground v.1.13,2013-05-16 00:30:00,
2013-05-15 20:55:00,76.8,63.7,29.72,West,261,0.0,0.0,64,0.00,,,0.00,Wunderground v.1.13,2013-05-16 00:55:00,
2013-05-15 21:00:00,76.4,63.8,29.72,West,261,0.0,0.0,65,0.00,,,0.00,Wunderground v.1.13,2013-05-16 01:00:00,
2013-05-15 21:05:00,76.0,63.8,29.73,West,261,0.0,0.0,66,0.00,,,0.00,Wunderground v.1.13,2013-05-16 01:05:00,
2013-05-15 21:15:00,75.3,64.0,29.73,West,261,0.0,0.0,68,0.00,,,0.00,Wunderground v.1.13,2013-05-16 01:15:00,
2013-05-15 21:20:00,74.8,63.5,29.73,West,260,0.0,0.0,68,0.00,,,0.00,Wunderground v.1.13,2013-05-16 01:20:00,
2013-05-15 21:40:00,73.1,63.1,29.74,West,261,0.0,0.0,71,0.00,,,0.00,Wunderground v.1.13,2013-05-16 01:40:00,
2013-05-15 21:45:00,72.8,62.8,29.74,West,261,0.0,0.0,71,0.00,,,0.00,Wunderground v.1.13,2013-05-16 01:45:00,
2013-05-15 22:00:00,72.0,62.9,29.75,West,261,0.0,0.0,73,0.00,,,0.00,Wunderground v.1.13,2013-05-16 02:00:00,
2013-05-15 22:05:00,71.8,63.1,29.75,West,261,0.0,0.0,74,0.00,,,0.00,Wunderground v.1.13,2013-05-16 02:05:00,
2013-05-15 22:15:00,71.4,62.7,29.75,West,261,0.0,0.0,74,0.00,,,0.00,Wunderground v.1.13,2013-05-16 02:15:00,
2013-05-15 22:20:00,71.3,63.0,29.75,West,261,0.0,0.0,75,0.00,,,0.00,Wunderground v.1.13,2013-05-16 02:20:00,
2013-05-15 22:25:00,71.1,62.8,29.75,West,261,0.0,0.0,75,0.00,,,0.00,Wunderground v.1.13,2013-05-16 02:25:00,
2013-05-15 22:30:00,70.8,62.9,29.75,West,261,0.0,0.0,76,0.00,,,0.00,Wunderground v.1.13,2013-05-16 02:30:00,
2013-05-15 22:35:00,70.6,62.7,29.75,West,260,0.0,0.0,76,0.00,,,0.00,Wunderground v.1.13,2013-05-16 02:35:00,
2013-05-15 22:40:00,70.3,62.7,29.75,West,261,0.0,0.0,77,0.00,,,0.00,Wunderground v.1.13,2013-05-16 02:40:00,
2013-05-15 22:45:00,70.1,62.6,29.75,West,261,0.0,0.0,77,0.00,,,0.00,Wunderground v.1.13,2013-05-16 02:45:00,
2013-05-15 22:55:00,69.7,62.2,29.75,West,261,0.0,0.0,77,0.00,,,0.00,Wunderground v.1.13,2013-05-16 02:55:00,
2013-05-15 23:00:00,69.4,62.2,29.75,West,261,0.0,0.0,78,0.00,,,0.00,Wunderground v.1.13,2013-05-16 03:00:00,
2013-05-15 23:10:00,69.0,61.9,29.75,West,261,0.0,0.0,78,0.00,,,0.00,Wunderground v.1.13,2013-05-16 03:10:00,
2013-05-15 23:15:00,68.8,61.7,29.75,West,261,0.0,0.0,78,0.00,,,0.00,Wunderground v.1.13,2013-05-16 03:15:00,
2013-05-15 23:20:00,68.7,61.9,29.75,West,260,0.0,0.0,79,0.00,,,0.00,Wunderground v.1.13,2013-05-16 03:20:00,
2013-05-15 23:30:00,68.5,61.7,29.75,West,261,0.0,0.0,79,0.00,,,0.00,Wunderground v.1.13,2013-05-16 03:30:00,
2013-05-15 23:40:00,68.3,61.9,29.75,West,261,0.0,0.0,80,0.00,,,0.00,Wunderground v.1.13,2013-05-16 03:40:00,
2013-05-15 23:45:00,68.0,61.6,29.75,West,260,0.0,0.0,80,0.00,,,0.00,Wunderground v.1.13,2013-05-16 03:45:00,
2013-05-15 23:50:00,67.9,61.9,29.75,West,261,0.0,0.0,81,0.00,,,0.00,Wunderground v.1.13,2013-05-16 03:50:00,
2013-05-15 23:55:00,67.8,61.8,29.74,West,261,0.0,0.0,81,0.00,,,0.00,Wunderground v.1.13,2013-05-16 03:55:00,